Flag for Germany Weather past 2 weeks in Greifswald, Mecklenburg-Western Pomerania, Germany

Now
48 °F

Scattered clouds.


Feels Like: 47 °F
Forecast: 44 / 62 °F
Wind: 3 mph from West

Location: Greifswald

Current Time: May 27, 2015 at 7:07:25 AM

Latest Report: May 27, 2015 at 6:00 AM


Visibility: 25 mi

Pressure: 30.07 "Hg

Humidity: 74%

Dew point: 40 °F

Location of GreifswaldLocation

Historic Weather in Greifswald — Graph

°F

Greifswald temperature yesterday

Maximum temperature yesterday: 59 °F (at 4:00 PM)
Minimum temperature yesterday: 44 °F (at 4:00 AM)
Average temperature yesterday: 52 °F

Past Weeks' High & Low Weather Summary

 TemperatureHumidityPressure
High76 °F (May 12, 2:00 PM)97% (May 20, 4:00 AM)30.31 "Hg (May 20, 4:00 AM)
Low40 °F (May 20, 5:00 AM)43% (May 17, 2:00 PM)29.57 "Hg (May 19, 5:00 AM)
Average52 °F73%29.99 "Hg
* Reported May 12 6:00 AM — May 27 6:00 AM, Greifswald, Weather by CustomWeather, © 2015

Note: Actual official high and low records may vary slightly from our data, if they occured in-between our weather recording intervals... More about our weather records

Advertising

Greifswald weather history for previous 24 hours

 ConditionsComfort  
Time TempWeatherWind HumidityBarometerVisibility
6:00 AM
Wed, May 27
48 °FScattered clouds.3 mph74%30.07 "Hg25 mi
5:00 AM48 °FScattered clouds.5 mph80%30.06 "Hg28 mi
4:00 AM49 °FOvercast.3 mph77%30.06 "Hg28 mi
3:00 AM50 °FOvercast.3 mph71%30.06 "Hg34 mi
2:00 AM50 °FOvercast.5 mph76%30.06 "Hg28 mi
1:00 AM50 °FOvercast.5 mph76%30.06 "Hg31 mi
12:00 AM51 °FOvercast.3 mph76%30.06 "Hg31 mi
11:00 PM
Tue, May 26
51 °FOvercast.5 mph73%30.05 "Hg37 mi
10:00 PM52 °FOvercast.5 mph69%30.05 "Hg37 mi
9:00 PM52 °FPartly sunny.6 mph66%30.04 "Hg37 mi
8:00 PM55 °FPassing clouds.7 mph56%30.02 "Hg28 mi
7:00 PM56 °FPassing clouds.6 mph51%30.01 "Hg28 mi
6:00 PM58 °FPartly sunny.8 mph46%30.00 "Hg16 mi
5:00 PM57 °FPartly sunny.7 mph49%30.00 "Hg19 mi
4:00 PM59 °FPartly sunny.7 mph52%29.99 "Hg37 mi
3:00 PM57 °FPartly sunny.8 mph50%29.99 "Hg28 mi
2:00 PM58 °FPartly sunny.7 mph48%29.98 "Hg22 mi
1:00 PM55 °FPartly sunny.5 mph66%29.98 "Hg31 mi
12:00 PM51 °FOvercast.3 mph76%29.98 "Hg34 mi
10:00 AM53 °FPartly sunny.5 mph72%29.96 "Hg31 mi
9:00 AM52 °FPartly sunny.6 mph72%29.95 "Hg31 mi
8:00 AM51 °FPartly sunny.3 mph77%29.94 "Hg19 mi
7:00 AM48 °FPartly sunny.3 mph85%29.93 "Hg19 mi
Weather by CustomWeather, © 2015

See weather overviewHow to use our weather pages